Year,Month,Day,Hour,Minute,Value (Times are PST for temperature in C)
2010,08,16,00,00,18.80
2010,08,16,00,01,18.80
2010,08,16,00,02,18.80
2010,08,16,00,03,18.80
2010,08,16,00,04,18.80
2010,08,16,00,05,18.80
2010,08,16,00,06,18.70
2010,08,16,00,07,18.70
2010,08,16,00,08,18.70
2010,08,16,00,09,18.70
2010,08,16,00,10,18.70
2010,08,16,00,11,18.60
2010,08,16,00,12,18.60
2010,08,16,00,13,18.60
2010,08,16,00,14,18.60
2010,08,16,00,15,18.50
2010,08,16,00,16,18.50
2010,08,16,00,17,18.50
2010,08,16,00,18,18.40
2010,08,16,00,19,18.40
2010,08,16,00,20,18.40
2010,08,16,00,21,18.40
2010,08,16,00,22,18.40
2010,08,16,00,23,18.30
2010,08,16,00,24,18.30
2010,08,16,00,25,18.30
2010,08,16,00,26,18.30
2010,08,16,00,27,18.30
2010,08,16,00,28,18.30
2010,08,16,00,29,18.40
2010,08,16,00,30,18.40
2010,08,16,00,31,18.40
2010,08,16,00,32,18.40
2010,08,16,00,33,18.40
2010,08,16,00,34,18.40
2010,08,16,00,35,18.40
2010,08,16,00,36,18.40
2010,08,16,00,37,18.30
2010,08,16,00,38,18.30
2010,08,16,00,39,18.30
2010,08,16,00,40,18.30
2010,08,16,00,41,18.30
2010,08,16,00,42,18.30
2010,08,16,00,43,18.30
2010,08,16,00,44,18.30
2010,08,16,00,45,18.20
2010,08,16,00,46,18.20
2010,08,16,00,47,18.20
2010,08,16,00,48,18.20
2010,08,16,00,49,18.10
2010,08,16,00,50,18.10
2010,08,16,00,51,18.10
2010,08,16,00,52,18.10
2010,08,16,00,53,18.00
2010,08,16,00,54,18.00
2010,08,16,00,55,18.00
2010,08,16,00,56,18.00
2010,08,16,00,57,17.90
2010,08,16,00,58,17.90
2010,08,16,00,59,17.90
2010,08,16,01,00,17.90
2010,08,16,01,01,17.90
2010,08,16,01,02,17.90
2010,08,16,01,03,17.90
2010,08,16,01,04,17.80
2010,08,16,01,05,17.80
2010,08,16,01,06,17.80
2010,08,16,01,07,17.80
2010,08,16,01,08,17.80
2010,08,16,01,09,17.70
2010,08,16,01,10,17.70
2010,08,16,01,11,17.70
2010,08,16,01,12,17.70
2010,08,16,01,13,17.60
2010,08,16,01,14,17.60
2010,08,16,01,15,17.60
2010,08,16,01,16,17.50
2010,08,16,01,17,17.50
2010,08,16,01,18,17.50
2010,08,16,01,19,17.40
2010,08,16,01,20,17.40
2010,08,16,01,21,17.40
2010,08,16,01,22,17.40
2010,08,16,01,23,17.40
2010,08,16,01,24,17.40
2010,08,16,01,25,17.40
2010,08,16,01,26,17.40
2010,08,16,01,27,17.40
2010,08,16,01,28,17.40
2010,08,16,01,29,17.40
2010,08,16,01,30,17.30
2010,08,16,01,31,17.30
2010,08,16,01,32,17.30
2010,08,16,01,33,17.30
2010,08,16,01,34,17.30
2010,08,16,01,35,17.20
2010,08,16,01,36,17.20
2010,08,16,01,37,17.20
2010,08,16,01,38,17.20
2010,08,16,01,39,17.20
2010,08,16,01,40,17.20
2010,08,16,01,41,17.20
2010,08,16,01,42,17.20
2010,08,16,01,43,17.20
2010,08,16,01,44,17.20
2010,08,16,01,45,17.20
2010,08,16,01,46,17.20
2010,08,16,01,47,17.10
2010,08,16,01,48,17.10
2010,08,16,01,49,17.20
2010,08,16,01,50,17.20
2010,08,16,01,51,17.20
2010,08,16,01,52,17.20
2010,08,16,01,53,17.20
2010,08,16,01,54,17.20
2010,08,16,01,55,17.20
2010,08,16,01,56,17.20
2010,08,16,01,57,17.20
2010,08,16,01,58,17.20
2010,08,16,01,59,17.20
2010,08,16,02,00,17.20
2010,08,16,02,01,17.20
2010,08,16,02,02,17.20
2010,08,16,02,03,17.20
2010,08,16,02,04,17.20
2010,08,16,02,05,17.20
2010,08,16,02,06,17.20
2010,08,16,02,07,17.20
2010,08,16,02,08,17.20
2010,08,16,02,09,17.20
2010,08,16,02,10,17.20
2010,08,16,02,11,17.10
2010,08,16,02,12,17.10
2010,08,16,02,13,17.10
2010,08,16,02,14,17.10
2010,08,16,02,15,17.10
2010,08,16,02,16,17.00
2010,08,16,02,17,17.00
2010,08,16,02,18,16.90
2010,08,16,02,19,16.90
2010,08,16,02,20,16.90
2010,08,16,02,21,16.90
2010,08,16,02,22,16.80
2010,08,16,02,23,16.80
2010,08,16,02,24,16.70
2010,08,16,02,25,16.70
2010,08,16,02,26,16.60
2010,08,16,02,27,16.50
2010,08,16,02,28,16.40
2010,08,16,02,29,16.40
2010,08,16,02,30,16.30
2010,08,16,02,31,16.30
2010,08,16,02,32,16.20
2010,08,16,02,33,16.20
2010,08,16,02,34,16.20
2010,08,16,02,35,16.20
2010,08,16,02,36,16.20
2010,08,16,02,37,16.20
2010,08,16,02,38,16.20
2010,08,16,02,39,16.20
2010,08,16,02,40,16.20
2010,08,16,02,41,16.20
2010,08,16,02,42,16.20
2010,08,16,02,43,16.20
2010,08,16,02,44,16.20
2010,08,16,02,45,16.30
2010,08,16,02,46,16.30
2010,08,16,02,47,16.30
2010,08,16,02,48,16.30
2010,08,16,02,49,16.30
2010,08,16,02,50,16.40
2010,08,16,02,51,16.40
2010,08,16,02,52,16.50
2010,08,16,02,53,16.50
2010,08,16,02,54,16.50
2010,08,16,02,55,16.60
2010,08,16,02,56,16.60
2010,08,16,02,57,16.60
2010,08,16,02,58,16.60
2010,08,16,02,59,16.60
2010,08,16,03,00,16.60
2010,08,16,03,01,16.60
2010,08,16,03,02,16.60
2010,08,16,03,03,16.60
2010,08,16,03,04,16.60
2010,08,16,03,05,16.60
2010,08,16,03,06,16.50
2010,08,16,03,07,16.50
2010,08,16,03,08,16.50
2010,08,16,03,09,16.50
2010,08,16,03,10,16.50
2010,08,16,03,11,16.50
2010,08,16,03,12,16.40
2010,08,16,03,13,16.40
2010,08,16,03,14,16.40
2010,08,16,03,15,16.40
2010,08,16,03,16,16.40
2010,08,16,03,17,16.40
2010,08,16,03,18,16.40
2010,08,16,03,19,16.40
2010,08,16,03,20,16.40
2010,08,16,03,21,16.40
2010,08,16,03,22,16.40
2010,08,16,03,23,16.40
2010,08,16,03,24,16.40
2010,08,16,03,25,16.40
2010,08,16,03,26,16.40
2010,08,16,03,27,16.40
2010,08,16,03,28,16.40
2010,08,16,03,29,16.40
2010,08,16,03,30,16.50
2010,08,16,03,31,16.50
2010,08,16,03,32,16.40
2010,08,16,03,33,16.40
2010,08,16,03,34,16.40
2010,08,16,03,35,16.40
2010,08,16,03,36,16.40
2010,08,16,03,37,16.40
2010,08,16,03,38,16.40
2010,08,16,03,39,16.30
2010,08,16,03,40,16.30
2010,08,16,03,41,16.30
2010,08,16,03,42,16.30
2010,08,16,03,43,16.30
2010,08,16,03,44,16.20
2010,08,16,03,45,16.20
2010,08,16,03,46,16.20
2010,08,16,03,47,16.10
2010,08,16,03,48,16.10
2010,08,16,03,49,16.10
2010,08,16,03,50,16.10
2010,08,16,03,51,16.10
2010,08,16,03,52,16.10
2010,08,16,03,53,16.00
2010,08,16,03,54,16.00
2010,08,16,03,55,16.00
2010,08,16,03,56,16.00
2010,08,16,03,57,16.00
2010,08,16,03,58,15.90
2010,08,16,03,59,15.90
2010,08,16,04,00,15.90
2010,08,16,04,01,15.90
2010,08,16,04,02,15.90
2010,08,16,04,03,15.80
2010,08,16,04,04,15.80
2010,08,16,04,05,15.80
2010,08,16,04,06,15.80
2010,08,16,04,07,15.80
2010,08,16,04,08,15.80
2010,08,16,04,09,15.80
2010,08,16,04,10,15.80
2010,08,16,04,11,15.80
2010,08,16,04,12,15.80
2010,08,16,04,13,15.80
2010,08,16,04,14,15.80
2010,08,16,04,15,15.80
2010,08,16,04,16,15.80
2010,08,16,04,17,15.80
2010,08,16,04,18,15.80
2010,08,16,04,19,15.70
2010,08,16,04,20,15.70
2010,08,16,04,21,15.70
2010,08,16,04,22,15.70
2010,08,16,04,23,15.70
2010,08,16,04,24,15.70
2010,08,16,04,25,15.70
2010,08,16,04,26,15.70
2010,08,16,04,27,15.60
2010,08,16,04,28,15.60
2010,08,16,04,29,15.60
2010,08,16,04,30,15.60
2010,08,16,04,31,15.60
2010,08,16,04,32,15.60
2010,08,16,04,33,15.60
2010,08,16,04,34,15.60
2010,08,16,04,35,15.60
2010,08,16,04,36,15.60
2010,08,16,04,37,15.60
2010,08,16,04,38,15.60
2010,08,16,04,39,15.60
2010,08,16,04,40,15.60
2010,08,16,04,41,15.60
2010,08,16,04,42,15.60
2010,08,16,04,43,15.60
2010,08,16,04,44,15.60
2010,08,16,04,45,15.60
2010,08,16,04,46,15.60
2010,08,16,04,47,15.60
2010,08,16,04,48,15.60
2010,08,16,04,49,15.60
2010,08,16,04,50,15.60
2010,08,16,04,51,15.60
2010,08,16,04,52,15.60
2010,08,16,04,53,15.60
2010,08,16,04,54,15.60
2010,08,16,04,55,15.60
2010,08,16,04,56,15.70
2010,08,16,04,57,15.70
2010,08,16,04,58,15.70
2010,08,16,04,59,15.70
2010,08,16,05,00,15.70
2010,08,16,05,01,15.70
2010,08,16,05,02,15.70
2010,08,16,05,03,15.70
2010,08,16,05,04,15.70
2010,08,16,05,05,15.60
2010,08,16,05,06,15.60
2010,08,16,05,07,15.50
2010,08,16,05,08,15.50
2010,08,16,05,09,15.40
2010,08,16,05,10,15.40
2010,08,16,05,11,15.30
2010,08,16,05,12,15.30
2010,08,16,05,13,15.30
2010,08,16,05,14,15.30
2010,08,16,05,15,15.20
2010,08,16,05,16,15.20
2010,08,16,05,17,15.10
2010,08,16,05,18,15.10
2010,08,16,05,19,15.10
2010,08,16,05,20,15.00
2010,08,16,05,21,15.00
2010,08,16,05,22,15.00
2010,08,16,05,23,14.90
2010,08,16,05,24,14.90
2010,08,16,05,25,14.90
2010,08,16,05,26,14.90
2010,08,16,05,27,14.90
2010,08,16,05,28,14.90
2010,08,16,05,29,14.90
2010,08,16,05,30,14.90
2010,08,16,05,31,14.90
2010,08,16,05,32,14.90
2010,08,16,05,33,14.90
2010,08,16,05,34,14.90
2010,08,16,05,35,14.90
2010,08,16,05,36,14.90
2010,08,16,05,37,14.90
2010,08,16,05,38,14.90
2010,08,16,05,39,14.90
2010,08,16,05,40,14.90
2010,08,16,05,41,14.90
2010,08,16,05,42,14.90
2010,08,16,05,43,14.90
2010,08,16,05,44,14.90
2010,08,16,05,45,14.90
2010,08,16,05,46,14.90
2010,08,16,05,47,14.90
2010,08,16,05,48,14.90
2010,08,16,05,49,14.90
2010,08,16,05,50,14.90
2010,08,16,05,51,14.90
2010,08,16,05,52,14.90
2010,08,16,05,53,14.90
2010,08,16,05,54,14.90
2010,08,16,05,55,14.80
2010,08,16,05,56,14.80
2010,08,16,05,57,14.80
2010,08,16,05,58,14.80
2010,08,16,05,59,14.80
2010,08,16,06,00,14.80
2010,08,16,06,01,14.80
2010,08,16,06,02,14.70
2010,08,16,06,03,14.70
2010,08,16,06,04,14.70
2010,08,16,06,05,14.70
2010,08,16,06,06,14.70
2010,08,16,06,07,14.70
2010,08,16,06,08,14.70
2010,08,16,06,09,14.70
2010,08,16,06,10,14.70
2010,08,16,06,11,14.70
2010,08,16,06,12,14.80
2010,08,16,06,13,14.70
2010,08,16,06,14,14.70
2010,08,16,06,15,14.70
2010,08,16,06,16,14.70
2010,08,16,06,17,14.70
2010,08,16,06,18,14.70
2010,08,16,06,19,14.70
2010,08,16,06,20,14.70
2010,08,16,06,21,14.70
2010,08,16,06,22,14.70
2010,08,16,06,23,14.70
2010,08,16,06,24,14.60
2010,08,16,06,25,14.60
2010,08,16,06,26,14.60
2010,08,16,06,27,14.60
2010,08,16,06,28,14.60
2010,08,16,06,29,14.60
2010,08,16,06,30,14.60
2010,08,16,06,31,14.50
2010,08,16,06,32,14.50
2010,08,16,06,33,14.50
2010,08,16,06,34,14.40
2010,08,16,06,35,14.40
2010,08,16,06,36,14.40
2010,08,16,06,37,14.40
2010,08,16,06,38,14.40
2010,08,16,06,39,14.40
2010,08,16,06,40,14.40
2010,08,16,06,41,14.40
2010,08,16,06,42,14.40
2010,08,16,06,43,14.40
2010,08,16,06,44,14.40
2010,08,16,06,45,14.40
2010,08,16,06,46,14.40
2010,08,16,06,47,14.40
2010,08,16,06,48,14.40
2010,08,16,06,49,14.40
2010,08,16,06,50,14.40
2010,08,16,06,51,14.40
2010,08,16,06,52,14.40
2010,08,16,06,53,14.50
2010,08,16,06,54,14.50
2010,08,16,06,55,14.50
2010,08,16,06,56,14.50
2010,08,16,06,57,14.50
2010,08,16,06,58,14.50
2010,08,16,06,59,14.50
2010,08,16,07,00,14.60
2010,08,16,07,01,14.60
2010,08,16,07,02,14.60
2010,08,16,07,03,14.60
2010,08,16,07,04,14.60
2010,08,16,07,05,14.60
2010,08,16,07,06,14.70
2010,08,16,07,07,14.70
2010,08,16,07,08,14.70
2010,08,16,07,09,14.80
2010,08,16,07,10,14.80
2010,08,16,07,11,14.90
2010,08,16,07,12,14.90
2010,08,16,07,13,14.90
2010,08,16,07,14,15.00
2010,08,16,07,15,15.00
2010,08,16,07,16,15.10
2010,08,16,07,17,15.10
2010,08,16,07,18,15.10
2010,08,16,07,19,15.10
2010,08,16,07,20,15.20
2010,08,16,07,21,15.20
2010,08,16,07,22,15.20
2010,08,16,07,23,15.30
2010,08,16,07,24,15.30
2010,08,16,07,25,15.30
2010,08,16,07,26,15.30
2010,08,16,07,27,15.40
2010,08,16,07,28,15.40
2010,08,16,07,29,15.40
2010,08,16,07,30,15.40
2010,08,16,07,31,15.40
2010,08,16,07,32,15.40
2010,08,16,07,33,15.50
2010,08,16,07,34,15.50
2010,08,16,07,35,15.60
2010,08,16,07,36,15.60
2010,08,16,07,37,15.60
2010,08,16,07,38,15.70
2010,08,16,07,39,15.70
2010,08,16,07,40,15.80
2010,08,16,07,41,15.80
2010,08,16,07,42,15.90
2010,08,16,07,43,16.00
2010,08,16,07,44,16.00
2010,08,16,07,45,16.10
2010,08,16,07,46,16.20
2010,08,16,07,47,16.20
2010,08,16,07,48,16.30
2010,08,16,07,49,16.40
2010,08,16,07,50,16.40
2010,08,16,07,51,16.50
2010,08,16,07,52,16.60
2010,08,16,07,53,16.60
2010,08,16,07,54,16.70
2010,08,16,07,55,16.80
2010,08,16,07,56,16.80
2010,08,16,07,57,16.90
2010,08,16,07,58,17.00
2010,08,16,07,59,17.00
2010,08,16,08,00,17.10
2010,08,16,08,01,17.20
2010,08,16,08,02,17.20
2010,08,16,08,03,17.30
2010,08,16,08,04,17.40
2010,08,16,08,05,17.50
2010,08,16,08,06,17.50
2010,08,16,08,07,17.60
2010,08,16,08,08,17.70
2010,08,16,08,09,17.80
2010,08,16,08,10,17.90
2010,08,16,08,11,18.00
2010,08,16,08,12,18.00
2010,08,16,08,13,18.10
2010,08,16,08,14,18.20
2010,08,16,08,15,18.30
2010,08,16,08,16,18.30
2010,08,16,08,17,18.40
2010,08,16,08,18,18.50
2010,08,16,08,19,18.50
2010,08,16,08,20,18.60
2010,08,16,08,21,18.70
2010,08,16,08,22,18.80
2010,08,16,08,23,18.90
2010,08,16,08,24,19.00
2010,08,16,08,25,19.10
2010,08,16,08,26,19.20
2010,08,16,08,27,19.30
2010,08,16,08,28,19.40
2010,08,16,08,29,19.50
2010,08,16,08,30,19.60
2010,08,16,08,31,19.70
2010,08,16,08,32,19.80
2010,08,16,08,33,19.90
2010,08,16,08,34,20.00
2010,08,16,08,35,20.10
2010,08,16,08,36,20.30
2010,08,16,08,37,20.40
2010,08,16,08,38,20.50
2010,08,16,08,39,20.60
2010,08,16,08,40,20.70
2010,08,16,08,41,20.90
2010,08,16,08,42,21.00
2010,08,16,08,43,21.10
2010,08,16,08,44,21.20
2010,08,16,08,45,21.30
2010,08,16,08,46,21.40
2010,08,16,08,47,21.50
2010,08,16,08,48,21.50
2010,08,16,08,49,21.60
2010,08,16,08,50,21.70
2010,08,16,08,51,21.80
2010,08,16,08,52,21.80
2010,08,16,08,53,21.90
2010,08,16,08,54,22.00
2010,08,16,08,55,22.00
2010,08,16,08,56,22.10
2010,08,16,08,57,22.10
2010,08,16,08,58,22.20
2010,08,16,08,59,22.20
2010,08,16,09,00,22.30
2010,08,16,09,01,22.30
2010,08,16,09,02,22.40
2010,08,16,09,03,22.40
2010,08,16,09,04,22.50
2010,08,16,09,05,22.60
2010,08,16,09,06,22.70
2010,08,16,09,07,22.80
2010,08,16,09,08,22.80
2010,08,16,09,09,22.90
2010,08,16,09,10,23.00
2010,08,16,09,11,23.10
2010,08,16,09,12,23.10
2010,08,16,09,13,23.20
2010,08,16,09,14,23.30
2010,08,16,09,15,23.40
2010,08,16,09,16,23.40
2010,08,16,09,17,23.50
2010,08,16,09,18,23.70
2010,08,16,09,19,23.80
2010,08,16,09,20,23.80
2010,08,16,09,21,23.90
2010,08,16,09,22,24.00
2010,08,16,09,23,24.10
2010,08,16,09,24,24.20
2010,08,16,09,25,24.30
2010,08,16,09,26,24.30
2010,08,16,09,27,24.40
2010,08,16,09,28,24.50
2010,08,16,09,29,24.60
2010,08,16,09,30,24.70
2010,08,16,09,31,24.90
2010,08,16,09,32,25.00
2010,08,16,09,33,25.20
2010,08,16,09,34,25.30
2010,08,16,09,35,25.30
2010,08,16,09,36,25.40
2010,08,16,09,37,25.50
2010,08,16,09,38,25.60
2010,08,16,09,39,25.70
2010,08,16,09,40,25.80
2010,08,16,09,41,25.80
2010,08,16,09,42,25.90
2010,08,16,09,43,26.00
2010,08,16,09,44,26.10
2010,08,16,09,45,26.20
2010,08,16,09,46,26.30
2010,08,16,09,47,26.40
2010,08,16,09,48,26.60
2010,08,16,09,49,26.60
2010,08,16,09,50,26.70
2010,08,16,09,51,26.70
2010,08,16,09,52,26.60
2010,08,16,09,53,26.50
2010,08,16,09,54,26.50
2010,08,16,09,55,26.60
2010,08,16,09,56,26.60
2010,08,16,09,57,26.60
2010,08,16,09,58,26.70
2010,08,16,09,59,26.70
2010,08,16,10,00,26.80
2010,08,16,10,01,26.80
2010,08,16,10,02,26.90
2010,08,16,10,03,26.90
2010,08,16,10,04,26.90
2010,08,16,10,05,27.00
2010,08,16,10,06,27.00
2010,08,16,10,07,27.00
2010,08,16,10,08,27.10
2010,08,16,10,09,27.10
2010,08,16,10,10,27.20
2010,08,16,10,11,27.20
2010,08,16,10,12,27.30
2010,08,16,10,13,27.30
2010,08,16,10,14,27.30
2010,08,16,10,15,27.30
2010,08,16,10,16,27.30
2010,08,16,10,17,27.40
2010,08,16,10,18,27.40
2010,08,16,10,19,27.40
2010,08,16,10,20,27.40
2010,08,16,10,21,27.30
2010,08,16,10,22,27.30
2010,08,16,10,23,27.30
2010,08,16,10,24,27.20
2010,08,16,10,25,27.10
2010,08,16,10,26,27.00
2010,08,16,10,27,26.90
2010,08,16,10,28,26.90
2010,08,16,10,29,26.80
2010,08,16,10,30,26.60
2010,08,16,10,31,26.30
2010,08,16,10,32,26.10
2010,08,16,10,33,25.90
2010,08,16,10,34,25.80
2010,08,16,10,35,25.80
2010,08,16,10,36,25.70
2010,08,16,10,37,25.70
2010,08,16,10,38,25.80
2010,08,16,10,39,25.80
2010,08,16,10,40,25.80
2010,08,16,10,41,25.80
2010,08,16,10,42,25.80
2010,08,16,10,43,25.80
2010,08,16,10,44,25.80
2010,08,16,10,45,25.80
2010,08,16,10,46,25.80
2010,08,16,10,47,25.80
2010,08,16,10,48,25.70
2010,08,16,10,49,25.60
2010,08,16,10,50,25.50
2010,08,16,10,51,25.50
2010,08,16,10,52,25.50
2010,08,16,10,53,25.50
2010,08,16,10,54,25.60
2010,08,16,10,55,25.60
2010,08,16,10,56,25.70
2010,08,16,10,57,25.80
2010,08,16,10,58,25.80
2010,08,16,10,59,25.90
2010,08,16,11,00,25.90
2010,08,16,11,01,25.80
2010,08,16,11,02,25.80
2010,08,16,11,03,25.90
2010,08,16,11,04,26.00
2010,08,16,11,05,26.10
2010,08,16,11,06,26.20
2010,08,16,11,07,26.20
2010,08,16,11,08,26.30
2010,08,16,11,09,26.30
2010,08,16,11,10,26.30
2010,08,16,11,11,26.30
2010,08,16,11,12,26.40
2010,08,16,11,13,26.40
2010,08,16,11,14,26.40
2010,08,16,11,15,26.30
2010,08,16,11,16,26.30
2010,08,16,11,17,26.30
2010,08,16,11,18,26.30
2010,08,16,11,19,26.30
2010,08,16,11,20,26.40
2010,08,16,11,21,26.30
2010,08,16,11,22,26.30
2010,08,16,11,23,26.40
2010,08,16,11,24,26.50
2010,08,16,11,25,26.60
2010,08,16,11,26,26.70
2010,08,16,11,27,26.70
2010,08,16,11,28,26.60
2010,08,16,11,29,26.60
2010,08,16,11,30,26.60
2010,08,16,11,31,26.60
2010,08,16,11,32,26.70
2010,08,16,11,33,26.80
2010,08,16,11,34,26.80
2010,08,16,11,35,26.90
2010,08,16,11,36,27.00
2010,08,16,11,37,27.10
2010,08,16,11,38,27.20
2010,08,16,11,39,27.20
2010,08,16,11,40,27.30
2010,08,16,11,41,27.30
2010,08,16,11,42,27.50
2010,08,16,11,43,27.50
2010,08,16,11,44,27.40
2010,08,16,11,45,27.40
2010,08,16,11,46,27.30
2010,08,16,11,47,27.30
2010,08,16,11,48,27.40
2010,08,16,11,49,27.30
2010,08,16,11,50,27.30
2010,08,16,11,51,27.20
2010,08,16,11,52,27.30
2010,08,16,11,53,27.30
2010,08,16,11,54,27.30
2010,08,16,11,55,27.30
2010,08,16,11,56,27.30
2010,08,16,11,57,27.20
2010,08,16,11,58,27.20
2010,08,16,11,59,27.20
2010,08,16,12,00,27.20
2010,08,16,12,01,27.30
2010,08,16,12,02,27.40
2010,08,16,12,03,27.40
2010,08,16,12,04,27.50
2010,08,16,12,05,27.60
2010,08,16,12,06,27.60
2010,08,16,12,07,27.60
2010,08,16,12,08,27.60
2010,08,16,12,09,27.70
2010,08,16,12,10,27.80
2010,08,16,12,11,28.00
2010,08,16,12,12,28.20
2010,08,16,12,13,28.30
2010,08,16,12,14,28.30
2010,08,16,12,15,28.30
2010,08,16,12,16,28.20
2010,08,16,12,17,28.20
2010,08,16,12,18,28.30
2010,08,16,12,19,28.20
2010,08,16,12,20,28.10
2010,08,16,12,21,28.10
2010,08,16,12,22,28.10
2010,08,16,12,23,28.10
2010,08,16,12,24,28.10
2010,08,16,12,25,28.00
2010,08,16,12,26,28.00
2010,08,16,12,27,27.90
2010,08,16,12,28,27.80
2010,08,16,12,29,27.70
2010,08,16,12,30,27.70
2010,08,16,12,31,27.80
2010,08,16,12,32,27.80
2010,08,16,12,33,27.80
2010,08,16,12,34,27.80
2010,08,16,12,35,27.90
2010,08,16,12,36,28.00
2010,08,16,12,37,28.10
2010,08,16,12,38,28.20
2010,08,16,12,39,28.20
2010,08,16,12,40,28.20
2010,08,16,12,41,28.20
2010,08,16,12,42,28.10
2010,08,16,12,43,28.10
2010,08,16,12,44,28.00
2010,08,16,12,45,27.90
2010,08,16,12,46,27.90
2010,08,16,12,47,28.00
2010,08,16,12,48,28.10
2010,08,16,12,49,28.20
2010,08,16,12,50,28.20
2010,08,16,12,51,28.10
2010,08,16,12,52,28.00
2010,08,16,12,53,28.00
2010,08,16,12,54,28.10
2010,08,16,12,55,28.10
2010,08,16,12,56,27.90
2010,08,16,12,57,27.90
2010,08,16,12,58,27.80
2010,08,16,12,59,27.80
2010,08,16,13,00,27.80
2010,08,16,13,01,27.80
2010,08,16,13,02,27.80
2010,08,16,13,03,27.70
2010,08,16,13,04,27.60
2010,08,16,13,05,27.70
2010,08,16,13,06,27.90
2010,08,16,13,07,28.00
2010,08,16,13,08,28.10
2010,08,16,13,09,28.00
2010,08,16,13,10,27.90
2010,08,16,13,11,27.90
2010,08,16,13,12,27.80
2010,08,16,13,13,27.80
2010,08,16,13,14,27.80
2010,08,16,13,15,27.80
2010,08,16,13,16,27.90
2010,08,16,13,17,28.00
2010,08,16,13,18,28.10
2010,08,16,13,19,28.10
2010,08,16,13,20,28.10
2010,08,16,13,21,28.10
2010,08,16,13,22,28.20
2010,08,16,13,23,28.20
2010,08,16,13,24,28.20
2010,08,16,13,25,28.20
2010,08,16,13,26,28.20
2010,08,16,13,27,28.20
2010,08,16,13,28,28.20
2010,08,16,13,29,28.10
2010,08,16,13,30,28.10
2010,08,16,13,31,28.10
2010,08,16,13,32,28.20
2010,08,16,13,33,28.20
2010,08,16,13,34,28.20
2010,08,16,13,35,28.20
2010,08,16,13,36,28.20
2010,08,16,13,37,28.20
2010,08,16,13,38,28.20
2010,08,16,13,39,28.20
2010,08,16,13,40,28.30
2010,08,16,13,41,28.30
2010,08,16,13,42,28.30
2010,08,16,13,43,28.40
2010,08,16,13,44,28.40
2010,08,16,13,45,28.40
2010,08,16,13,46,28.40
2010,08,16,13,47,28.40
2010,08,16,13,48,28.60
2010,08,16,13,49,28.60
2010,08,16,13,50,28.70
2010,08,16,13,51,28.70
2010,08,16,13,52,28.70
2010,08,16,13,53,28.60
2010,08,16,13,54,28.60
2010,08,16,13,55,28.50
2010,08,16,13,56,28.50
2010,08,16,13,57,28.50
2010,08,16,13,58,28.60
2010,08,16,13,59,28.70
2010,08,16,14,00,28.70
2010,08,16,14,01,28.70
2010,08,16,14,02,28.60
2010,08,16,14,03,28.50
2010,08,16,14,04,28.50
2010,08,16,14,05,28.50
2010,08,16,14,06,28.70
2010,08,16,14,07,28.70
2010,08,16,14,08,28.70
2010,08,16,14,09,28.70
2010,08,16,14,10,28.70
2010,08,16,14,11,28.80
2010,08,16,14,12,28.90
2010,08,16,14,13,28.80
2010,08,16,14,14,28.70
2010,08,16,14,15,28.70
2010,08,16,14,16,28.60
2010,08,16,14,17,28.60
2010,08,16,14,18,28.60
2010,08,16,14,19,28.60
2010,08,16,14,20,28.60
2010,08,16,14,21,28.60
2010,08,16,14,22,28.80
2010,08,16,14,23,29.00
2010,08,16,14,24,29.10
2010,08,16,14,25,29.00
2010,08,16,14,26,29.00
2010,08,16,14,27,29.10
2010,08,16,14,28,29.20
2010,08,16,14,29,29.20
2010,08,16,14,30,29.20
2010,08,16,14,31,29.30
2010,08,16,14,32,29.20
2010,08,16,14,33,29.00
2010,08,16,14,34,28.90
2010,08,16,14,35,28.80
2010,08,16,14,36,28.80
2010,08,16,14,37,28.90
2010,08,16,14,38,28.90
2010,08,16,14,39,28.90
2010,08,16,14,40,29.00
2010,08,16,14,41,29.00
2010,08,16,14,42,29.00
2010,08,16,14,43,29.00
2010,08,16,14,44,29.00
2010,08,16,14,45,28.90
2010,08,16,14,46,28.80
2010,08,16,14,47,28.80
2010,08,16,14,48,28.80
2010,08,16,14,49,28.80
2010,08,16,14,50,28.90
2010,08,16,14,51,29.00
2010,08,16,14,52,29.10
2010,08,16,14,53,29.20
2010,08,16,14,54,29.20
2010,08,16,14,55,29.20
2010,08,16,14,56,29.20
2010,08,16,14,57,29.10
2010,08,16,14,58,29.10
2010,08,16,14,59,29.20
2010,08,16,15,00,29.20
2010,08,16,15,01,29.20
2010,08,16,15,02,29.10
2010,08,16,15,03,29.20
2010,08,16,15,04,29.40
2010,08,16,15,05,29.40
2010,08,16,15,06,29.40
2010,08,16,15,07,29.40
2010,08,16,15,08,29.30
2010,08,16,15,09,29.30
2010,08,16,15,10,29.30
2010,08,16,15,11,29.30
2010,08,16,15,12,29.10
2010,08,16,15,13,28.90
2010,08,16,15,14,28.90
2010,08,16,15,15,28.90
2010,08,16,15,16,28.90
2010,08,16,15,17,28.80
2010,08,16,15,18,28.70
2010,08,16,15,19,28.60
2010,08,16,15,20,28.60
2010,08,16,15,21,28.60
2010,08,16,15,22,28.70
2010,08,16,15,23,28.90
2010,08,16,15,24,28.90
2010,08,16,15,25,28.90
2010,08,16,15,26,28.80
2010,08,16,15,27,28.80
2010,08,16,15,28,28.70
2010,08,16,15,29,28.60
2010,08,16,15,30,28.70
2010,08,16,15,31,28.70
2010,08,16,15,32,28.70
2010,08,16,15,33,28.70
2010,08,16,15,34,28.70
2010,08,16,15,35,28.80
2010,08,16,15,36,28.80
2010,08,16,15,37,28.90
2010,08,16,15,38,28.90
2010,08,16,15,39,28.80
2010,08,16,15,40,28.80
2010,08,16,15,41,28.80
2010,08,16,15,42,28.80
2010,08,16,15,43,28.80
2010,08,16,15,44,28.70
2010,08,16,15,45,28.70
2010,08,16,15,46,28.70
2010,08,16,15,47,28.80
2010,08,16,15,48,28.80
2010,08,16,15,49,28.90
2010,08,16,15,50,28.80
2010,08,16,15,51,28.80
2010,08,16,15,52,28.90
2010,08,16,15,53,28.90
2010,08,16,15,54,28.90
2010,08,16,15,55,28.80
2010,08,16,15,56,28.90
2010,08,16,15,57,28.90
2010,08,16,15,58,28.80
2010,08,16,15,59,28.80
2010,08,16,16,00,28.80
2010,08,16,16,01,28.80
2010,08,16,16,02,28.70
2010,08,16,16,03,28.70
2010,08,16,16,04,28.70
2010,08,16,16,05,28.60
2010,08,16,16,06,28.50
2010,08,16,16,07,28.60
2010,08,16,16,08,28.60
2010,08,16,16,09,28.50
2010,08,16,16,10,28.60
2010,08,16,16,11,28.70
2010,08,16,16,12,28.70
2010,08,16,16,13,28.80
2010,08,16,16,14,28.80
2010,08,16,16,15,28.80
2010,08,16,16,16,28.80
2010,08,16,16,17,28.80
2010,08,16,16,18,28.80
2010,08,16,16,19,28.70
2010,08,16,16,20,28.80
2010,08,16,16,21,28.90
2010,08,16,16,22,28.90
2010,08,16,16,23,28.90
2010,08,16,16,24,28.90
2010,08,16,16,25,28.80
2010,08,16,16,26,28.60
2010,08,16,16,27,28.50
2010,08,16,16,28,28.60
2010,08,16,16,29,28.70
2010,08,16,16,30,28.80
2010,08,16,16,31,28.80
2010,08,16,16,32,28.80
2010,08,16,16,33,28.70
2010,08,16,16,34,28.50
2010,08,16,16,35,28.50
2010,08,16,16,36,28.40
2010,08,16,16,37,28.40
2010,08,16,16,38,28.40
2010,08,16,16,39,28.40
2010,08,16,16,40,28.30
2010,08,16,16,41,28.30
2010,08,16,16,42,28.20
2010,08,16,16,43,28.30
2010,08,16,16,44,28.30
2010,08,16,16,45,28.40
2010,08,16,16,46,28.50
2010,08,16,16,47,28.60
2010,08,16,16,48,28.70
2010,08,16,16,49,28.70
2010,08,16,16,50,28.70
2010,08,16,16,51,28.60
2010,08,16,16,52,28.60
2010,08,16,16,53,28.60
2010,08,16,16,54,28.60
2010,08,16,16,55,28.60
2010,08,16,16,56,28.60
2010,08,16,16,57,28.60
2010,08,16,16,58,28.50
2010,08,16,16,59,28.50
2010,08,16,17,00,28.50
2010,08,16,17,01,28.40
2010,08,16,17,02,28.30
2010,08,16,17,03,28.30
2010,08,16,17,04,28.30
2010,08,16,17,05,28.30
2010,08,16,17,06,28.30
2010,08,16,17,07,28.30
2010,08,16,17,08,28.20
2010,08,16,17,09,28.20
2010,08,16,17,10,28.20
2010,08,16,17,11,28.20
2010,08,16,17,12,28.20
2010,08,16,17,13,28.20
2010,08,16,17,14,28.10
2010,08,16,17,15,28.20
2010,08,16,17,16,28.20
2010,08,16,17,17,28.20
2010,08,16,17,18,28.20
2010,08,16,17,19,28.20